星链-5597 (STARLINK-5597 )

导读

STARLINK-5597是美国SpaceX公司星链(Starlink)卫星互联网星座的一员,于2023年1月31日发射。星链计划旨在通过近地轨道卫星星座,为全球偏远地区提供高速低延迟宽带互联网服务。该卫星属于星链扩容批次,运行于近地轨道,配备氪离子推进系统与相控阵天线,支持自主轨道调整和避碰,服务全球网络覆盖,助力星链实现全球互联目标。

基本信息
目录编号:
55403
目录名称:
STARLINK-5597
国际标识:
2023-014N
轨道中心:
EARTH
卫星名称:
星链-5597
卫星全名:
星链-5597 (STARLINK-5597 )
卫星状态:
在轨 (已飞行1320 天)
发射日期:
2023-01-31 UTC
国别 :
美国 (US)
星等 :
--
该卫星已列入 空间交会检测服务 Space Conjunction Data Service (SCDS) ,当前飞行风险评估等级: 高风险
轨道信息
数据来源 国际轨道数据
星历时间: 2026-09-12T11:16:27+0800
12小时前
查看轨道信息
半长轴: 6950.187km
偏心率: 0.0003379
轨道倾角: 69.999°
近地点辐角 271.498°
升交点赤经 314.347°
平近点角 88.579°
近地点: 569.701km
远地点: 574.399km
周期: 96.107分钟
每日圈数: 14.98332
详细信息
固有亮度:
5
最大亮度:
2.5
卫星平台:
Starlink v1.5
覆盖范围:
全球
运营商:
太空探索技术公司
运营商所在国:
美国
制造商(研发单位):
太空探索技术公司
制造商所在国:
美国
使用方式:
暂无
卫星简介
星链(Starlink)计划是由太空探索技术公司(SpaceX)提出的一个巨型低轨卫星互联网星座项目,计划在2019年至2024年间在太空搭建由约1.2万颗卫星组成的“星链”网络,其中1584颗将部署在地球上空550千米处的近地轨道,并从2020年开始工作。该卫星仍在工作。
2D轨道图
3D轨道图
轨道高度分析图
轨道倾角分析图
轨道综合分析图
查看轨道综合分析图
交会数据列表
事件ID 空间交会对象 最接近时刻(TCA) 交会距离 交会风险概率(CRP) 交会风险指数(CRI) 操作
CDM_260913-162205-540306-326324
SOAP (63263)
2026-09-13T
16:22:20+0000
1.572 km
极远距离
5.789597E-6 低风险 0.5
与全量物体交会距离演化趋势
与全量物体交会风险概率演化趋势